sat.trackr.live / text

‹ back to catalog

STARLINK-3762

NORAD 52374 · 2022-045AV

PAYLOAD ACTIVE UNKNOWN

§ Identity

Operator
Country
US
Launch date
2022-04-29
Launch site
AFETR
Launch vehicle
Mass (kg)
RCS (m²)

Purposes: comms

External: N2YO · Heavens-Above · Gunter

§ Orbital elements

Epoch: 2026-05-25T04:38:33.811296Z

Period
95.44 min
Inclination
53.2127°
Eccentricity
0.0001491
Mean motion
15.08837680 rev/d
Perigee alt
538.7 km
Apogee alt
540.8 km
Semi-major
6,917.9 km
B*
1.1320e-5
RAAN
205.6832°
Arg perigee
81.7668°
Mean anomaly
278.3494°
Rev number
22,747

§ Raw data

STARLINK-37621 52374U 22045AV  26145.19344689 -.00000108  00000+0  11320-4 0  99962 52374  53.2127 205.6832 0001491  81.7668 278.3494 15.08837680227475

JSON: /api/v1/satellites/52374 · /tle

For live sub-satellite position, see the globe view (requires WebGL).

§ Visibility from observer

Set your observer location to see the next 7 days of passes ≥ 10°. The values pass through the URL so the page stays shareable.

No JS? Fill the form by hand. The geolocation button needs JavaScript.